{"data":{"norad_id":52491,"intl_designator":"2022-049AS","name":"STARLINK-3908","alt_names":[],"object_type":"PAYLOAD","status":"ACTIVE","operator":null,"country":"US","launch_date":"2022-05-06","launch_site_code":"AFETR","launch_vehicle":null,"mission":null,"orbit_class":"UNKNOWN","rcs_meters":null,"size_class":null,"mass_kg":null,"dimensions":null,"purposes":["comms"],"wikipedia_slug":null,"has_3d_model":false,"image_url":null,"decayed_at":null,"tle_current":{"epoch":"2026-09-20T00:08:05.383104Z","epoch_age_seconds":105992,"freshness":"FRESH","line1":"1 52491U 22049AS  26263.00561786  .01230347  00000+0  35208-1 0  9998","line2":"2 52491  53.1526 252.1611 0003791 134.6840 225.4471 15.32747893241785","mean_motion":15.32747893,"eccentricity":0.0003791,"inclination_deg":53.1526,"raan_deg":252.1611,"arg_perigee_deg":134.684,"mean_anomaly_deg":225.4471,"bstar":0.035208,"rev_number":24178,"period_min":93.948914011001,"perigee_km":465.02283476931,"apogee_km":470.21328625619,"semimajor_km":6845.7550605128,"source":"CELESTRAK","updated_at":"2026-09-20T09:00:40.055569Z"}}}